Flag for Germany Weather past 2 weeks in Wilhelmshaven, Lower Saxony, Germany

Now
86 °F

Scattered clouds.


Feels Like: 85 °F
Forecast: 60 / 76 °F
Wind: 10 mph from Southeast

Location: Wittmundhaven

Current Time: Aug 3, 2015 at 5:44:42 PM

Latest Report: Aug 3, 2015 at 4:20 PM


Visibility: N/A

Pressure: 29.92 "Hg

Humidity: 38%

Dew point: 57 °F

Location of WilhelmshavenLocation

Historic Weather in Wilhelmshaven — Graph

°F

Wilhelmshaven temperature yesterday

Maximum temperature yesterday: 72 °F (at 2:20 PM)
Minimum temperature yesterday: 48 °F (at 4:20 AM)
Average temperature yesterday: 61 °F

Past Weeks' High & Low Weather Summary

 TemperatureHumidityPressure
High86 °F (Aug 3, 4:20 PM)100% (Jul 25, 5:20 AM)30.15 "Hg (Jul 25, 5:20 AM)
Low45 °F (Aug 1, 3:20 AM)38% (Aug 3, 4:20 PM)29.39 "Hg (Jul 25, 2:20 PM)
Average60 °F77%29.83 "Hg
* Reported Jul 19 4:20 PM — Aug 3 4:20 PM, Wilhelmshaven, Weather by CustomWeather, © 2015

Note: Actual official high and low records may vary slightly from our data, if they occured in-between our weather recording intervals... More about our weather records

Advertising

Wilhelmshaven weather history for previous 24 hours

 ConditionsComfort  
Time TempWeatherWind HumidityBarometerVisibility
4:20 PM
Mon, Aug 3
86 °FScattered clouds.10 mph38%29.92 "HgN/A
3:20 PM84 °FPassing clouds.10 mph40%29.95 "HgN/A
2:20 PM82 °FPassing clouds.10 mph45%29.95 "HgN/A
1:20 PM81 °FPassing clouds.9 mph45%29.95 "HgN/A
12:20 PM77 °FScattered clouds.9 mph51%29.98 "HgN/A
11:20 AM73 °FScattered clouds.9 mph53%29.98 "HgN/A
10:20 AM72 °FScattered clouds.10 mph53%29.98 "HgN/A
9:20 AM68 °FPassing clouds.12 mph60%29.98 "HgN/A
8:20 AM63 °FPassing clouds.9 mph73%30.01 "HgN/A
7:20 AM59 °FScattered clouds.10 mph77%30.01 "HgN/A
6:20 AM57 °FPassing clouds.9 mph77%30.01 "HgN/A
5:20 AM57 °FPassing clouds.9 mph77%30.04 "HgN/A
4:20 AM55 °FCool.9 mph82%30.04 "HgN/A
3:20 AM55 °FCool.7 mph82%30.07 "Hg5 mi
2:20 AM55 °FCool.5 mph82%30.09 "Hg6 mi
1:20 AM57 °FCool.6 mph82%30.09 "Hg6 mi
12:20 AM59 °FCool.7 mph82%30.09 "Hg5 mi
11:20 PM
Sun, Aug 2
59 °FCool.8 mph88%30.09 "Hg4 mi
10:20 PM61 °FCool.7 mph77%30.09 "Hg4 mi
9:20 PM63 °FMild.8 mph73%30.09 "HgN/A
8:20 PM66 °FMild.9 mph64%30.09 "HgN/A
7:20 PM68 °FMild.8 mph60%30.12 "HgN/A
6:20 PM70 °FMild.9 mph57%30.12 "HgN/A
5:20 PM70 °FMild.9 mph57%30.12 "HgN/A
Weather by CustomWeather, © 2015

See weather overviewHow to use our weather pages